Year,Month,Day,Hour,Minute,Value (Times are PST for temperature in C)
2015,07,18,00,00,20.10
2015,07,18,00,01,20.10
2015,07,18,00,02,20.10
2015,07,18,00,03,20.10
2015,07,18,00,04,20.10
2015,07,18,00,05,20.00
2015,07,18,00,06,20.00
2015,07,18,00,07,20.00
2015,07,18,00,08,20.00
2015,07,18,00,09,20.00
2015,07,18,00,10,20.00
2015,07,18,00,11,19.90
2015,07,18,00,12,19.90
2015,07,18,00,13,19.90
2015,07,18,00,14,19.90
2015,07,18,00,15,19.80
2015,07,18,00,16,19.80
2015,07,18,00,17,19.80
2015,07,18,00,18,19.80
2015,07,18,00,19,19.70
2015,07,18,00,20,19.70
2015,07,18,00,21,19.70
2015,07,18,00,22,19.70
2015,07,18,00,23,19.60
2015,07,18,00,24,19.60
2015,07,18,00,25,19.60
2015,07,18,00,26,19.60
2015,07,18,00,27,19.60
2015,07,18,00,28,19.50
2015,07,18,00,29,19.50
2015,07,18,00,30,19.50
2015,07,18,00,31,19.50
2015,07,18,00,32,19.40
2015,07,18,00,33,19.40
2015,07,18,00,34,19.40
2015,07,18,00,35,19.40
2015,07,18,00,36,19.40
2015,07,18,00,37,19.40
2015,07,18,00,38,19.40
2015,07,18,00,39,19.40
2015,07,18,00,40,19.40
2015,07,18,00,41,19.40
2015,07,18,00,42,19.30
2015,07,18,00,43,19.30
2015,07,18,00,44,19.30
2015,07,18,00,45,19.30
2015,07,18,00,46,19.30
2015,07,18,00,47,19.30
2015,07,18,00,48,19.20
2015,07,18,00,49,19.20
2015,07,18,00,50,19.20
2015,07,18,00,51,19.20
2015,07,18,00,52,19.20
2015,07,18,00,53,19.20
2015,07,18,00,54,19.10
2015,07,18,00,55,19.10
2015,07,18,00,56,19.10
2015,07,18,00,57,19.10
2015,07,18,00,58,19.10
2015,07,18,00,59,19.00
2015,07,18,01,00,19.00
2015,07,18,01,01,19.00
2015,07,18,01,02,18.90
2015,07,18,01,03,18.90
2015,07,18,01,04,18.90
2015,07,18,01,05,18.90
2015,07,18,01,06,18.80
2015,07,18,01,07,18.80
2015,07,18,01,08,18.80
2015,07,18,01,09,18.80
2015,07,18,01,10,18.70
2015,07,18,01,11,18.70
2015,07,18,01,12,18.70
2015,07,18,01,13,18.70
2015,07,18,01,14,18.70
2015,07,18,01,15,18.60
2015,07,18,01,16,18.60
2015,07,18,01,17,18.60
2015,07,18,01,18,18.50
2015,07,18,01,19,18.50
2015,07,18,01,20,18.40
2015,07,18,01,21,18.40
2015,07,18,01,22,18.40
2015,07,18,01,23,18.30
2015,07,18,01,24,18.30
2015,07,18,01,25,18.30
2015,07,18,01,26,18.30
2015,07,18,01,27,18.30
2015,07,18,01,28,18.20
2015,07,18,01,29,18.20
2015,07,18,01,30,18.20
2015,07,18,01,31,18.20
2015,07,18,01,32,18.20
2015,07,18,01,33,18.20
2015,07,18,01,34,18.10
2015,07,18,01,35,18.10
2015,07,18,01,36,18.10
2015,07,18,01,37,18.10
2015,07,18,01,38,18.10
2015,07,18,01,39,18.10
2015,07,18,01,40,18.10
2015,07,18,01,41,18.10
2015,07,18,01,42,18.10
2015,07,18,01,43,18.00
2015,07,18,01,44,18.00
2015,07,18,01,45,18.00
2015,07,18,01,46,18.00
2015,07,18,01,47,17.90
2015,07,18,01,48,17.90
2015,07,18,01,49,17.90
2015,07,18,01,50,17.90
2015,07,18,01,51,17.80
2015,07,18,01,52,17.80
2015,07,18,01,53,17.80
2015,07,18,01,54,17.80
2015,07,18,01,55,17.80
2015,07,18,01,56,17.80
2015,07,18,01,57,17.80
2015,07,18,01,58,17.80
2015,07,18,01,59,17.70
2015,07,18,02,00,17.70
2015,07,18,02,01,17.70
2015,07,18,02,02,17.70
2015,07,18,02,03,17.70
2015,07,18,02,04,17.70
2015,07,18,02,05,17.60
2015,07,18,02,06,17.60
2015,07,18,02,07,17.60
2015,07,18,02,08,17.60
2015,07,18,02,09,17.50
2015,07,18,02,10,17.50
2015,07,18,02,11,17.40
2015,07,18,02,12,17.40
2015,07,18,02,13,17.40
2015,07,18,02,14,17.30
2015,07,18,02,15,17.30
2015,07,18,02,16,17.30
2015,07,18,02,17,17.30
2015,07,18,02,18,17.30
2015,07,18,02,19,17.30
2015,07,18,02,20,17.20
2015,07,18,02,21,17.20
2015,07,18,02,22,17.20
2015,07,18,02,23,17.20
2015,07,18,02,24,17.10
2015,07,18,02,25,17.10
2015,07,18,02,26,17.10
2015,07,18,02,27,17.10
2015,07,18,02,28,17.00
2015,07,18,02,29,17.00
2015,07,18,02,30,17.00
2015,07,18,02,31,16.90
2015,07,18,02,32,16.90
2015,07,18,02,33,16.90
2015,07,18,02,34,16.90
2015,07,18,02,35,16.80
2015,07,18,02,36,16.80
2015,07,18,02,37,16.80
2015,07,18,02,38,16.80
2015,07,18,02,39,16.70
2015,07,18,02,40,16.70
2015,07,18,02,41,16.70
2015,07,18,02,42,16.70
2015,07,18,02,43,16.70
2015,07,18,02,44,16.60
2015,07,18,02,45,16.60
2015,07,18,02,46,16.60
2015,07,18,02,47,16.60
2015,07,18,02,48,16.60
2015,07,18,02,49,16.60
2015,07,18,02,50,16.60
2015,07,18,02,51,16.50
2015,07,18,02,52,16.50
2015,07,18,02,53,16.50
2015,07,18,02,54,16.50
2015,07,18,02,55,16.60
2015,07,18,02,56,16.60
2015,07,18,02,57,16.60
2015,07,18,02,58,16.60
2015,07,18,02,59,16.60
2015,07,18,03,00,16.50
2015,07,18,03,01,16.60
2015,07,18,03,02,16.50
2015,07,18,03,03,16.50
2015,07,18,03,04,16.50
2015,07,18,03,05,16.40
2015,07,18,03,06,16.40
2015,07,18,03,07,16.40
2015,07,18,03,08,16.30
2015,07,18,03,09,16.30
2015,07,18,03,10,16.30
2015,07,18,03,11,16.20
2015,07,18,03,12,16.20
2015,07,18,03,13,16.20
2015,07,18,03,14,16.20
2015,07,18,03,15,16.10
2015,07,18,03,16,16.10
2015,07,18,03,17,16.10
2015,07,18,03,18,16.10
2015,07,18,03,19,16.10
2015,07,18,03,20,16.10
2015,07,18,03,21,16.10
2015,07,18,03,22,16.10
2015,07,18,03,23,16.00
2015,07,18,03,24,16.00
2015,07,18,03,25,16.00
2015,07,18,03,26,16.00
2015,07,18,03,27,15.90
2015,07,18,03,28,15.90
2015,07,18,03,29,15.90
2015,07,18,03,30,15.90
2015,07,18,03,31,15.90
2015,07,18,03,32,15.90
2015,07,18,03,33,15.80
2015,07,18,03,34,15.80
2015,07,18,03,35,15.80
2015,07,18,03,36,15.80
2015,07,18,03,37,15.80
2015,07,18,03,38,15.80
2015,07,18,03,39,15.80
2015,07,18,03,40,15.80
2015,07,18,03,41,15.80
2015,07,18,03,42,15.80
2015,07,18,03,43,15.80
2015,07,18,03,44,15.80
2015,07,18,03,45,15.80
2015,07,18,03,46,15.80
2015,07,18,03,47,15.80
2015,07,18,03,48,15.80
2015,07,18,03,49,15.80
2015,07,18,03,50,15.80
2015,07,18,03,51,15.80
2015,07,18,03,52,15.80
2015,07,18,03,53,15.70
2015,07,18,03,54,15.70
2015,07,18,03,55,15.70
2015,07,18,03,56,15.70
2015,07,18,03,57,15.70
2015,07,18,03,58,15.70
2015,07,18,03,59,15.70
2015,07,18,04,00,15.70
2015,07,18,04,01,15.70
2015,07,18,04,02,15.70
2015,07,18,04,03,15.70
2015,07,18,04,04,15.60
2015,07,18,04,05,15.60
2015,07,18,04,06,15.60
2015,07,18,04,07,15.60
2015,07,18,04,08,15.60
2015,07,18,04,09,15.60
2015,07,18,04,10,15.60
2015,07,18,04,11,15.50
2015,07,18,04,12,15.50
2015,07,18,04,13,15.50
2015,07,18,04,14,15.50
2015,07,18,04,15,15.40
2015,07,18,04,16,15.40
2015,07,18,04,17,15.40
2015,07,18,04,18,15.40
2015,07,18,04,19,15.40
2015,07,18,04,20,15.40
2015,07,18,04,21,15.30
2015,07,18,04,22,15.30
2015,07,18,04,23,15.30
2015,07,18,04,24,15.30
2015,07,18,04,25,15.30
2015,07,18,04,26,15.30
2015,07,18,04,27,15.30
2015,07,18,04,28,15.30
2015,07,18,04,29,15.30
2015,07,18,04,30,15.30
2015,07,18,04,31,15.30
2015,07,18,04,32,15.30
2015,07,18,04,33,15.30
2015,07,18,04,34,15.30
2015,07,18,04,35,15.30
2015,07,18,04,36,15.30
2015,07,18,04,37,15.30
2015,07,18,04,38,15.30
2015,07,18,04,39,15.30
2015,07,18,04,40,15.30
2015,07,18,04,41,15.30
2015,07,18,04,42,15.30
2015,07,18,04,43,15.30
2015,07,18,04,44,15.30
2015,07,18,04,45,15.30
2015,07,18,04,46,15.30
2015,07,18,04,47,15.30
2015,07,18,04,48,15.30
2015,07,18,04,49,15.30
2015,07,18,04,50,15.30
2015,07,18,04,51,15.30
2015,07,18,04,52,15.30
2015,07,18,04,53,15.30
2015,07,18,04,54,15.30
2015,07,18,04,55,15.30
2015,07,18,04,56,15.20
2015,07,18,04,57,15.20
2015,07,18,04,58,15.20
2015,07,18,04,59,15.20
2015,07,18,05,00,15.10
2015,07,18,05,01,15.10
2015,07,18,05,02,15.10
2015,07,18,05,03,15.10
2015,07,18,05,04,15.10
2015,07,18,05,05,15.00
2015,07,18,05,06,15.00
2015,07,18,05,07,15.00
2015,07,18,05,08,15.00
2015,07,18,05,09,14.90
2015,07,18,05,10,14.90
2015,07,18,05,11,14.90
2015,07,18,05,12,14.90
2015,07,18,05,13,14.80
2015,07,18,05,14,14.80
2015,07,18,05,15,14.80
2015,07,18,05,16,14.80
2015,07,18,05,17,14.80
2015,07,18,05,18,14.80
2015,07,18,05,19,14.70
2015,07,18,05,20,14.80
2015,07,18,05,21,14.80
2015,07,18,05,22,14.80
2015,07,18,05,23,14.80
2015,07,18,05,24,14.80
2015,07,18,05,25,14.90
2015,07,18,05,26,14.90
2015,07,18,05,27,14.90
2015,07,18,05,28,14.90
2015,07,18,05,29,14.90
2015,07,18,05,30,14.90
2015,07,18,05,31,14.90
2015,07,18,05,32,14.90
2015,07,18,05,33,14.90
2015,07,18,05,34,14.90
2015,07,18,05,35,14.90
2015,07,18,05,36,14.90
2015,07,18,05,37,14.90
2015,07,18,05,38,14.80
2015,07,18,05,39,14.80
2015,07,18,05,40,14.80
2015,07,18,05,41,14.80
2015,07,18,05,42,14.80
2015,07,18,05,43,14.80
2015,07,18,05,44,14.80
2015,07,18,05,45,14.80
2015,07,18,05,46,14.80
2015,07,18,05,47,14.80
2015,07,18,05,48,14.80
2015,07,18,05,49,14.80
2015,07,18,05,50,14.70
2015,07,18,05,51,14.70
2015,07,18,05,52,14.70
2015,07,18,05,53,14.70
2015,07,18,05,54,14.70
2015,07,18,05,55,14.70
2015,07,18,05,56,14.70
2015,07,18,05,57,14.70
2015,07,18,05,58,14.80
2015,07,18,05,59,14.80
2015,07,18,06,00,14.80
2015,07,18,06,01,14.80
2015,07,18,06,02,14.80
2015,07,18,06,03,14.80
2015,07,18,06,04,14.80
2015,07,18,06,05,14.80
2015,07,18,06,06,14.80
2015,07,18,06,07,14.80
2015,07,18,06,08,14.80
2015,07,18,06,09,14.80
2015,07,18,06,10,14.80
2015,07,18,06,11,14.80
2015,07,18,06,12,14.80
2015,07,18,06,13,14.70
2015,07,18,06,14,14.70
2015,07,18,06,15,14.70
2015,07,18,06,16,14.80
2015,07,18,06,17,14.80
2015,07,18,06,18,14.80
2015,07,18,06,19,14.80
2015,07,18,06,20,14.80
2015,07,18,06,21,14.80
2015,07,18,06,22,14.90
2015,07,18,06,23,14.90
2015,07,18,06,24,14.90
2015,07,18,06,25,14.90
2015,07,18,06,26,15.00
2015,07,18,06,27,15.00
2015,07,18,06,28,15.00
2015,07,18,06,29,15.00
2015,07,18,06,30,15.10
2015,07,18,06,31,15.10
2015,07,18,06,32,15.10
2015,07,18,06,33,15.10
2015,07,18,06,34,15.10
2015,07,18,06,35,15.10
2015,07,18,06,36,15.10
2015,07,18,06,37,15.10
2015,07,18,06,38,15.10
2015,07,18,06,39,15.10
2015,07,18,06,40,15.10
2015,07,18,06,41,15.10
2015,07,18,06,42,15.10
2015,07,18,06,43,15.10
2015,07,18,06,44,15.10
2015,07,18,06,45,15.20
2015,07,18,06,46,15.20
2015,07,18,06,47,15.20
2015,07,18,06,48,15.20
2015,07,18,06,49,15.20
2015,07,18,06,50,15.20
2015,07,18,06,51,15.20
2015,07,18,06,52,15.20
2015,07,18,06,53,15.30
2015,07,18,06,54,15.30
2015,07,18,06,55,15.40
2015,07,18,06,56,15.40
2015,07,18,06,57,15.40
2015,07,18,06,58,15.40
2015,07,18,06,59,15.40
2015,07,18,07,00,15.50
2015,07,18,07,01,15.50
2015,07,18,07,02,15.60
2015,07,18,07,03,15.60
2015,07,18,07,04,15.60
2015,07,18,07,05,15.60
2015,07,18,07,06,15.60
2015,07,18,07,07,15.70
2015,07,18,07,08,15.70
2015,07,18,07,09,15.70
2015,07,18,07,10,15.70
2015,07,18,07,11,15.80
2015,07,18,07,12,15.80
2015,07,18,07,13,15.80
2015,07,18,07,14,15.90
2015,07,18,07,15,15.90
2015,07,18,07,16,16.00
2015,07,18,07,17,16.10
2015,07,18,07,18,16.10
2015,07,18,07,19,16.10
2015,07,18,07,20,16.20
2015,07,18,07,21,16.20
2015,07,18,07,22,16.30
2015,07,18,07,23,16.30
2015,07,18,07,24,16.40
2015,07,18,07,25,16.50
2015,07,18,07,26,16.50
2015,07,18,07,27,16.60
2015,07,18,07,28,16.60
2015,07,18,07,29,16.60
2015,07,18,07,30,16.60
2015,07,18,07,31,16.60
2015,07,18,07,32,16.60
2015,07,18,07,33,16.60
2015,07,18,07,34,16.70
2015,07,18,07,35,16.70
2015,07,18,07,36,16.70
2015,07,18,07,37,16.70
2015,07,18,07,38,16.70
2015,07,18,07,39,16.80
2015,07,18,07,40,16.80
2015,07,18,07,41,16.80
2015,07,18,07,42,16.90
2015,07,18,07,43,17.00
2015,07,18,07,44,17.00
2015,07,18,07,45,17.10
2015,07,18,07,46,17.20
2015,07,18,07,47,17.30
2015,07,18,07,48,17.30
2015,07,18,07,49,17.40
2015,07,18,07,50,17.40
2015,07,18,07,51,17.50
2015,07,18,07,52,17.50
2015,07,18,07,53,17.60
2015,07,18,07,54,17.60
2015,07,18,07,55,17.70
2015,07,18,07,56,17.70
2015,07,18,07,57,17.70
2015,07,18,07,58,17.80
2015,07,18,07,59,17.80
2015,07,18,08,00,17.80
2015,07,18,08,01,17.80
2015,07,18,08,02,17.80
2015,07,18,08,03,17.80
2015,07,18,08,04,17.90
2015,07,18,08,05,17.90
2015,07,18,08,06,17.90
2015,07,18,08,07,18.00
2015,07,18,08,08,18.10
2015,07,18,08,09,18.10
2015,07,18,08,10,18.20
2015,07,18,08,11,18.20
2015,07,18,08,12,18.30
2015,07,18,08,13,18.30
2015,07,18,08,14,18.40
2015,07,18,08,15,18.40
2015,07,18,08,16,18.50
2015,07,18,08,17,18.60
2015,07,18,08,18,18.70
2015,07,18,08,19,18.70
2015,07,18,08,20,18.80
2015,07,18,08,21,18.90
2015,07,18,08,22,18.90
2015,07,18,08,23,19.00
2015,07,18,08,24,19.10
2015,07,18,08,25,19.20
2015,07,18,08,26,19.30
2015,07,18,08,27,19.40
2015,07,18,08,28,19.50
2015,07,18,08,29,19.50
2015,07,18,08,30,19.60
2015,07,18,08,31,19.70
2015,07,18,08,32,19.80
2015,07,18,08,33,19.90
2015,07,18,08,34,20.00
2015,07,18,08,35,20.00
2015,07,18,08,36,20.10
2015,07,18,08,37,20.20
2015,07,18,08,38,20.30
2015,07,18,08,39,20.30
2015,07,18,08,40,20.30
2015,07,18,08,41,20.40
2015,07,18,08,42,20.40
2015,07,18,08,43,20.50
2015,07,18,08,44,20.60
2015,07,18,08,45,20.60
2015,07,18,08,46,20.70
2015,07,18,08,47,20.80
2015,07,18,08,48,20.80
2015,07,18,08,49,20.90
2015,07,18,08,50,21.00
2015,07,18,08,51,21.10
2015,07,18,08,52,21.10
2015,07,18,08,53,21.20
2015,07,18,08,54,21.20
2015,07,18,08,55,21.20
2015,07,18,08,56,21.30
2015,07,18,08,57,21.40
2015,07,18,08,58,21.40
2015,07,18,08,59,21.50
2015,07,18,09,00,21.60
2015,07,18,09,01,21.60
2015,07,18,09,02,21.60
2015,07,18,09,03,21.60
2015,07,18,09,04,21.60
2015,07,18,09,05,21.60
2015,07,18,09,06,21.60
2015,07,18,09,07,21.60
2015,07,18,09,08,21.50
2015,07,18,09,09,21.50
2015,07,18,09,10,21.40
2015,07,18,09,11,21.40
2015,07,18,09,12,21.40
2015,07,18,09,13,21.40
2015,07,18,09,14,21.30
2015,07,18,09,15,21.30
2015,07,18,09,16,21.30
2015,07,18,09,17,21.20
2015,07,18,09,18,21.20
2015,07,18,09,19,21.20
2015,07,18,09,20,21.20
2015,07,18,09,21,21.20
2015,07,18,09,22,21.10
2015,07,18,09,23,21.10
2015,07,18,09,24,21.10
2015,07,18,09,25,21.10
2015,07,18,09,26,21.00
2015,07,18,09,27,21.00
2015,07,18,09,28,20.90
2015,07,18,09,29,20.90
2015,07,18,09,30,20.90
2015,07,18,09,31,20.80
2015,07,18,09,32,20.90
2015,07,18,09,33,20.90
2015,07,18,09,34,20.90
2015,07,18,09,35,20.90
2015,07,18,09,36,20.90
2015,07,18,09,37,20.90
2015,07,18,09,38,20.90
2015,07,18,09,39,21.00
2015,07,18,09,40,21.00
2015,07,18,09,41,21.10
2015,07,18,09,42,21.10
2015,07,18,09,43,21.20
2015,07,18,09,44,21.20
2015,07,18,09,45,21.20
2015,07,18,09,46,21.30
2015,07,18,09,47,21.30
2015,07,18,09,48,21.40
2015,07,18,09,49,21.40
2015,07,18,09,50,21.50
2015,07,18,09,51,21.50
2015,07,18,09,52,21.60
2015,07,18,09,53,21.70
2015,07,18,09,54,21.80
2015,07,18,09,55,21.80
2015,07,18,09,56,21.90
2015,07,18,09,57,22.00
2015,07,18,09,58,22.00
2015,07,18,09,59,22.10
2015,07,18,10,00,22.10
2015,07,18,10,01,22.10
2015,07,18,10,02,22.20
2015,07,18,10,03,22.20
2015,07,18,10,04,22.30
2015,07,18,10,05,22.30
2015,07,18,10,06,22.40
2015,07,18,10,07,22.30
2015,07,18,10,08,22.30
2015,07,18,10,09,22.20
2015,07,18,10,10,22.10
2015,07,18,10,11,22.00
2015,07,18,10,12,21.90
2015,07,18,10,13,21.90
2015,07,18,10,14,21.90
2015,07,18,10,15,21.90
2015,07,18,10,16,21.90
2015,07,18,10,17,22.00
2015,07,18,10,18,22.00
2015,07,18,10,19,22.00
2015,07,18,10,20,21.90
2015,07,18,10,21,21.80
2015,07,18,10,22,21.80
2015,07,18,10,23,21.80
2015,07,18,10,24,21.90
2015,07,18,10,25,21.90
2015,07,18,10,26,21.80
2015,07,18,10,27,21.80
2015,07,18,10,28,21.80
2015,07,18,10,29,21.70
2015,07,18,10,30,21.70
2015,07,18,10,31,21.70
2015,07,18,10,32,21.70
2015,07,18,10,33,21.70
2015,07,18,10,34,21.80
2015,07,18,10,35,21.80
2015,07,18,10,36,21.90
2015,07,18,10,37,21.90
2015,07,18,10,38,21.90
2015,07,18,10,39,21.90
2015,07,18,10,40,21.80
2015,07,18,10,41,21.90
2015,07,18,10,42,21.90
2015,07,18,10,43,21.90
2015,07,18,10,44,21.90
2015,07,18,10,45,21.90
2015,07,18,10,46,21.90
2015,07,18,10,47,21.90
2015,07,18,10,48,22.00
2015,07,18,10,49,22.00
2015,07,18,10,50,22.00
2015,07,18,10,51,22.00
2015,07,18,10,52,22.00
2015,07,18,10,53,22.00
2015,07,18,10,54,22.10
2015,07,18,10,55,22.10
2015,07,18,10,56,22.10
2015,07,18,10,57,22.10
2015,07,18,10,58,22.10
2015,07,18,10,59,22.20
2015,07,18,11,00,22.20
2015,07,18,11,01,22.20
2015,07,18,11,02,22.10
2015,07,18,11,03,22.10
2015,07,18,11,04,22.00
2015,07,18,11,05,22.00
2015,07,18,11,06,22.00
2015,07,18,11,07,22.10
2015,07,18,11,08,22.10
2015,07,18,11,09,22.20
2015,07,18,11,10,22.20
2015,07,18,11,11,22.20
2015,07,18,11,12,22.30
2015,07,18,11,13,22.30
2015,07,18,11,14,22.40
2015,07,18,11,15,22.50
2015,07,18,11,16,22.60
2015,07,18,11,17,22.60
2015,07,18,11,18,22.70
2015,07,18,11,19,22.80
2015,07,18,11,20,22.90
2015,07,18,11,21,22.90
2015,07,18,11,22,22.90
2015,07,18,11,23,23.00
2015,07,18,11,24,23.00
2015,07,18,11,25,23.00
2015,07,18,11,26,23.00
2015,07,18,11,27,22.90
2015,07,18,11,28,23.00
2015,07,18,11,29,23.00
2015,07,18,11,30,23.00
2015,07,18,11,31,23.10
2015,07,18,11,32,23.20
2015,07,18,11,33,23.20
2015,07,18,11,34,23.20
2015,07,18,11,35,23.10
2015,07,18,11,36,23.10
2015,07,18,11,37,23.10
2015,07,18,11,38,23.10
2015,07,18,11,39,23.00
2015,07,18,11,40,22.90
2015,07,18,11,41,22.80
2015,07,18,11,42,22.70
2015,07,18,11,43,22.60
2015,07,18,11,44,22.50
2015,07,18,11,45,22.40
2015,07,18,11,46,22.40
2015,07,18,11,47,22.40
2015,07,18,11,48,22.50
2015,07,18,11,49,22.50
2015,07,18,11,50,22.60
2015,07,18,11,51,22.60
2015,07,18,11,52,22.60
2015,07,18,11,53,22.70
2015,07,18,11,54,22.80
2015,07,18,11,55,22.90
2015,07,18,11,56,23.00
2015,07,18,11,57,23.00
2015,07,18,11,58,23.10
2015,07,18,11,59,23.20
2015,07,18,12,00,23.20
2015,07,18,12,01,23.20
2015,07,18,12,02,23.20
2015,07,18,12,03,23.20
2015,07,18,12,04,23.10
2015,07,18,12,05,23.10
2015,07,18,12,06,23.00
2015,07,18,12,07,22.90
2015,07,18,12,08,22.90
2015,07,18,12,09,22.90
2015,07,18,12,10,22.90
2015,07,18,12,11,22.90
2015,07,18,12,12,22.90
2015,07,18,12,13,22.80
2015,07,18,12,14,22.70
2015,07,18,12,15,22.70
2015,07,18,12,16,22.70
2015,07,18,12,17,22.80
2015,07,18,12,18,22.80
2015,07,18,12,19,22.90
2015,07,18,12,20,22.80
2015,07,18,12,21,22.80
2015,07,18,12,22,22.80
2015,07,18,12,23,22.70
2015,07,18,12,24,22.70
2015,07,18,12,25,22.70
2015,07,18,12,26,22.70
2015,07,18,12,27,22.80
2015,07,18,12,28,22.80
2015,07,18,12,29,22.80
2015,07,18,12,30,22.90
2015,07,18,12,31,22.90
2015,07,18,12,32,22.90
2015,07,18,12,33,22.90
2015,07,18,12,34,22.90
2015,07,18,12,35,22.90
2015,07,18,12,36,22.90
2015,07,18,12,37,22.80
2015,07,18,12,38,22.70
2015,07,18,12,39,22.60
2015,07,18,12,40,22.60
2015,07,18,12,41,22.60
2015,07,18,12,42,22.60
2015,07,18,12,43,22.60
2015,07,18,12,44,22.60
2015,07,18,12,45,22.60
2015,07,18,12,46,22.60
2015,07,18,12,47,22.60
2015,07,18,12,48,22.70
2015,07,18,12,49,22.70
2015,07,18,12,50,22.70
2015,07,18,12,51,22.70
2015,07,18,12,52,22.60
2015,07,18,12,53,22.60
2015,07,18,12,54,22.60
2015,07,18,12,55,22.70
2015,07,18,12,56,22.70
2015,07,18,12,57,22.80
2015,07,18,12,58,22.80
2015,07,18,12,59,22.90
2015,07,18,13,00,22.90
2015,07,18,13,01,23.00
2015,07,18,13,02,23.10
2015,07,18,13,03,23.00
2015,07,18,13,04,23.00
2015,07,18,13,05,23.00
2015,07,18,13,06,23.10
2015,07,18,13,07,23.20
2015,07,18,13,08,23.20
2015,07,18,13,09,23.30
2015,07,18,13,10,23.30
2015,07,18,13,11,23.40
2015,07,18,13,12,23.50
2015,07,18,13,13,23.50
2015,07,18,13,14,23.60
2015,07,18,13,15,23.60
2015,07,18,13,16,23.60
2015,07,18,13,17,23.60
2015,07,18,13,18,23.60
2015,07,18,13,19,23.70
2015,07,18,13,20,23.70
2015,07,18,13,21,23.70
2015,07,18,13,22,23.80
2015,07,18,13,23,23.80
2015,07,18,13,24,23.90
2015,07,18,13,25,24.00
2015,07,18,13,26,24.00
2015,07,18,13,27,24.10
2015,07,18,13,28,24.10
2015,07,18,13,29,24.20
2015,07,18,13,30,24.20
2015,07,18,13,31,24.30
2015,07,18,13,32,24.40
2015,07,18,13,33,24.40
2015,07,18,13,34,24.50
2015,07,18,13,35,24.60
2015,07,18,13,36,24.60
2015,07,18,13,37,24.60
2015,07,18,13,38,24.70
2015,07,18,13,39,24.70
2015,07,18,13,40,24.70
2015,07,18,13,41,24.70
2015,07,18,13,42,24.70
2015,07,18,13,43,24.70
2015,07,18,13,44,24.70
2015,07,18,13,45,24.70
2015,07,18,13,46,24.70
2015,07,18,13,47,24.70
2015,07,18,13,48,24.70
2015,07,18,13,49,24.70
2015,07,18,13,50,24.70
2015,07,18,13,51,24.70
2015,07,18,13,52,24.70
2015,07,18,13,53,24.80
2015,07,18,13,54,24.90
2015,07,18,13,55,25.00
2015,07,18,13,56,25.10
2015,07,18,13,57,25.20
2015,07,18,13,58,25.30
2015,07,18,13,59,25.30
2015,07,18,14,00,25.40
2015,07,18,14,01,25.40
2015,07,18,14,02,25.50
2015,07,18,14,03,25.60
2015,07,18,14,04,25.60
2015,07,18,14,05,25.60
2015,07,18,14,06,25.60
2015,07,18,14,07,25.70
2015,07,18,14,08,25.70
2015,07,18,14,09,25.70
2015,07,18,14,10,25.60
2015,07,18,14,11,25.50
2015,07,18,14,12,25.30
2015,07,18,14,13,25.30
2015,07,18,14,14,25.20
2015,07,18,14,15,25.10
2015,07,18,14,16,25.10
2015,07,18,14,17,25.00
2015,07,18,14,18,24.90
2015,07,18,14,19,24.80
2015,07,18,14,20,24.80
2015,07,18,14,21,24.70
2015,07,18,14,22,24.70
2015,07,18,14,23,24.60
2015,07,18,14,24,24.60
2015,07,18,14,25,24.50
2015,07,18,14,26,24.50
2015,07,18,14,27,24.40
2015,07,18,14,28,24.40
2015,07,18,14,29,24.40
2015,07,18,14,30,24.50
2015,07,18,14,31,24.60
2015,07,18,14,32,24.70
2015,07,18,14,33,24.80
2015,07,18,14,34,24.80
2015,07,18,14,35,24.90
2015,07,18,14,36,25.00
2015,07,18,14,37,25.10
2015,07,18,14,38,25.20
2015,07,18,14,39,25.30
2015,07,18,14,40,25.50
2015,07,18,14,41,25.50
2015,07,18,14,42,25.60
2015,07,18,14,43,25.60
2015,07,18,14,44,25.70
2015,07,18,14,45,25.70
2015,07,18,14,46,25.70
2015,07,18,14,47,25.70
2015,07,18,14,48,25.70
2015,07,18,14,49,25.80
2015,07,18,14,50,25.80
2015,07,18,14,51,25.80
2015,07,18,14,52,25.80
2015,07,18,14,53,25.80
2015,07,18,14,54,25.80
2015,07,18,14,55,25.90
2015,07,18,14,56,25.80
2015,07,18,14,57,25.80
2015,07,18,14,58,25.90
2015,07,18,14,59,25.90
2015,07,18,15,00,25.90
2015,07,18,15,01,25.80
2015,07,18,15,02,25.80
2015,07,18,15,03,25.70
2015,07,18,15,04,25.70
2015,07,18,15,05,25.70
2015,07,18,15,06,25.70
2015,07,18,15,07,25.70
2015,07,18,15,08,25.80
2015,07,18,15,09,25.80
2015,07,18,15,10,25.80
2015,07,18,15,11,26.00
2015,07,18,15,12,26.10
2015,07,18,15,13,26.20
2015,07,18,15,14,26.30
2015,07,18,15,15,26.40
2015,07,18,15,16,26.50
2015,07,18,15,17,26.60
2015,07,18,15,18,26.70
2015,07,18,15,19,26.80
2015,07,18,15,20,26.80
2015,07,18,15,21,26.80
2015,07,18,15,22,26.80
2015,07,18,15,23,26.80
2015,07,18,15,24,26.80
2015,07,18,15,25,26.90
2015,07,18,15,26,26.90
2015,07,18,15,27,27.00
2015,07,18,15,28,27.10
2015,07,18,15,29,27.10
2015,07,18,15,30,27.10
2015,07,18,15,31,27.10
2015,07,18,15,32,27.20
2015,07,18,15,33,27.20
2015,07,18,15,34,27.20
2015,07,18,15,35,27.30
2015,07,18,15,36,27.30
2015,07,18,15,37,27.30
2015,07,18,15,38,27.40
2015,07,18,15,39,27.40
2015,07,18,15,40,27.50
2015,07,18,15,41,27.60
2015,07,18,15,42,27.70
2015,07,18,15,43,27.70
2015,07,18,15,44,27.80
2015,07,18,15,45,27.80
2015,07,18,15,46,27.80
2015,07,18,15,47,27.80
2015,07,18,15,48,27.80
2015,07,18,15,49,27.80
2015,07,18,15,50,27.90
2015,07,18,15,51,27.90
2015,07,18,15,52,28.00
2015,07,18,15,53,28.00
2015,07,18,15,54,28.00
2015,07,18,15,55,28.00
2015,07,18,15,56,28.00
2015,07,18,15,57,28.00
2015,07,18,15,58,28.00
2015,07,18,15,59,28.00
2015,07,18,16,00,28.10
2015,07,18,16,01,28.10
2015,07,18,16,02,28.10
2015,07,18,16,03,28.10
2015,07,18,16,04,28.10
2015,07,18,16,05,28.10
2015,07,18,16,06,28.10
2015,07,18,16,07,28.10
2015,07,18,16,08,28.00
2015,07,18,16,09,28.00
2015,07,18,16,10,28.00
2015,07,18,16,11,28.00
2015,07,18,16,12,27.90
2015,07,18,16,13,27.90
2015,07,18,16,14,27.70
2015,07,18,16,15,27.60
2015,07,18,16,16,27.50
2015,07,18,16,17,27.20
2015,07,18,16,18,27.00
2015,07,18,16,19,26.80
2015,07,18,16,20,26.60
2015,07,18,16,21,26.50
2015,07,18,16,22,26.40
2015,07,18,16,23,26.30
2015,07,18,16,24,26.20
2015,07,18,16,25,26.20
2015,07,18,16,26,26.20
2015,07,18,16,27,26.30
2015,07,18,16,28,26.30
2015,07,18,16,29,26.30
2015,07,18,16,30,26.30
2015,07,18,16,31,26.30
2015,07,18,16,32,26.20
2015,07,18,16,33,26.20
2015,07,18,16,34,26.20
2015,07,18,16,35,26.20
2015,07,18,16,36,26.20
2015,07,18,16,37,26.20
2015,07,18,16,38,26.20
2015,07,18,16,39,26.30
2015,07,18,16,40,26.40
2015,07,18,16,41,26.50
2015,07,18,16,42,26.60
2015,07,18,16,43,26.70
2015,07,18,16,44,26.80
2015,07,18,16,45,27.00
2015,07,18,16,46,27.10
2015,07,18,16,47,27.20
2015,07,18,16,48,27.20
2015,07,18,16,49,27.30
2015,07,18,16,50,27.40
2015,07,18,16,51,27.40
2015,07,18,16,52,27.50
2015,07,18,16,53,27.60
2015,07,18,16,54,27.60
2015,07,18,16,55,27.60
2015,07,18,16,56,27.60
2015,07,18,16,57,27.70
2015,07,18,16,58,27.70
2015,07,18,16,59,27.80
2015,07,18,17,00,27.80
2015,07,18,17,01,27.90
2015,07,18,17,02,28.00
2015,07,18,17,03,28.10
2015,07,18,17,04,28.10
2015,07,18,17,05,28.20
2015,07,18,17,06,28.30
2015,07,18,17,07,28.40
2015,07,18,17,08,28.40
2015,07,18,17,09,28.50
2015,07,18,17,10,28.50
2015,07,18,17,11,28.60
2015,07,18,17,12,28.70
2015,07,18,17,13,28.70
2015,07,18,17,14,28.80
2015,07,18,17,15,28.90
2015,07,18,17,16,29.00
2015,07,18,17,17,29.10
2015,07,18,17,18,29.10
2015,07,18,17,19,29.10